• Contacto:

    Directo: 4535-5707
    poleposition@arnet.com.ar

  • Buscar Noticias

Rossi marca la tendencia

rossi39

A bordo del Chevrolet alistado por el equipo Donto Racing, Matías Rossi ha dominado la primera tanda de entrenamientos del Turismo Carretera, con sol a pleno y agradable temperatura, poniendo así un manto de esperanza en la marca del moño.
El piloto de San Isidro marcó 1m 20s 196/1000 para quedarse con lo mejor y dejar detrás a dos usuarios de la marca Ford, ya que Juan Manuel Silva quedó segundo a 187/1000 y Diego Aventín fue tercero a 204/1000. Cuarto se ubicó el mejor usuario de Dodge volviendo a los primeros planos, ya que Emiliano Spataro quedó a 372/1000. Lo siguieron los dos pilotos del equipo Oil, José María López a que se ubicó quinto y Esteban Guerrieri de gran trabajo, en el sexto lugar. Agustín Canapino (Chevrolet), José Savino (Ford), Omar Martínez (Ford) y Norberto Fontana, completaron el “top ten” de la tanda de entrenamientos previa a la primera clasificación, que se pondrá en marcha a partir de las 15.10hs.

1er. Entrenamiento Turismo Carretera – Olavarría

1 2 Rossi, Matías 16 01:20.196
2 111 Silva, Juan Manuel 15 01:20.383 0.187
3 14 Aventin, Diego 14 01:20.400 0.204
4 12 Spataro, Emiliano 16 01:20.568 0.372
5 23 López, José María 13 01:20.604 0.408
6 101 Guerrieri, Esteban 14 01:20.625 0.429
7 8 Canapino, Agustín 13 01:20.693 0.497
8 25 Savino, José 14 01:20.722 0.526
9 22 Martínez, Omar 11 01:20.727 0.531
10 9 Fontana, Norberto 15 01:20.786 0.590
11 3 Ortelli, Guillermo 14 01:20.813 0.617
12 18 Moriatis, Emanuel 11 01:20.815 0.619
13 20 Altuna, Mariano 16 01:20.857 0.661
14 21 Gianini, Juan Pablo 14 01:20.875 0.679
15 1 Giallombardo, Mauro 11 01:20.897 0.701
16 85 Risatti, Ricardo 16 01:20.900 0.704
17 24 Pernía, Leonel 16 01:20.932 0.736
18 37 Di Palma, Josito 16 01:20.994 0.798
19 83 Ardusso, Facundo 14 01:21.069 0.873
20 26 Trucco, Juan Martín 15 01:21.098 0.902
21 35 Sotro, Leonel 14 01:21.155 0.959
22 6 De Benedictis, Juan Bautista 16 01:21.166 0.970
23 27 Jalaf, Matías 16 01:21.240 1.044
24 33 Oubiña, Adrián 15 01:21.324 1.128
25 5 Ponce de León, Gabriel 11 01:21.354 1.158
26 19 Bonelli, Próspero 16 01:21.442 1.246
27 28 Ugalde, Lionel 10 01:21.462 1.266
28 11 Ponte, Martín 13 01:21.490 1.294
29 182 Kohler, Claudio 14 01:21.516 1.320
30 36 Nolesi, Mathias 13 01:21.533 1.337
31 7 Girolami, Néstor 15 01:21.547 1.351
32 17 Angelini, Juan Marcos 15 01:21.570 1.374
33 30 Juan, Maximiliano 14 01:21.586 1.390
34 15 Werner, Mariano 11 01:21.635 1.439
35 10 Castellano, Jonatan 16 01:21.660 1.464
36 61 Ventricelli , Luciano 14 01:21.707 1.511
37 4 Ledesma, Christian 9 01:21.755 1.559
38 13 Alaux, Sergio 14 01:21.816 1.620
39 29 Basso, Martín 13 01:21.824 1.628
40 71 Smith, Brian 13 01:21.902 1.706
41 98 Bonelli, Nicolás 16 01:21.974 1.778
42 48 Solís, Gustavo 13 01:22.108 1.912
43 45 De Carlo, Diego 15 01:22.655 2.459
44 46 Dose, Christian 17 01:23.156 2.960
45 41 Mazzacane, Gastón 11 01:23.278 3.082
46 50 Candela , Enrique 13 01:23.302 3.106
47 49 Gil Bicella, Facundo 9 01:23.664 3.468
48 39 Verna, Rafael 13 01:23.750 3.554
49 31 Okulovich, Carlos 6 01:30.035 9.839

Anuncios

Responder

Introduce tus datos o haz clic en un icono para iniciar sesión:

Logo de WordPress.com

Estás comentando usando tu cuenta de WordPress.com. Cerrar sesión / Cambiar )

Imagen de Twitter

Estás comentando usando tu cuenta de Twitter. Cerrar sesión / Cambiar )

Foto de Facebook

Estás comentando usando tu cuenta de Facebook. Cerrar sesión / Cambiar )

Google+ photo

Estás comentando usando tu cuenta de Google+. Cerrar sesión / Cambiar )

Conectando a %s

A %d blogueros les gusta esto: